This is the latest recevied weather packets stored in our database for station/object DG0LHZ-10. If no packets are shown the sender has not sent any weather packets the latest 1 day(s).
| Time | Temp. | Humidity | Pressure | Rain* | Wind** | Luminosity | Snow |
|---|---|---|---|---|---|---|---|
| 1778394908 | 12.78° C | 53% | 1016.7 hPa | - | - | - | - |
| 1778394008 | 12.22° C | 52% | 1016.8 hPa | - | - | - | - |
| 1778393108 | 11.67° C | 52% | 1016.8 hPa | - | - | - | - |
| 1778392208 | 11.11° C | 53% | 1016.9 hPa | - | - | - | - |
| 1778391308 | 10.56° C | 53% | 1017.1 hPa | - | - | - | - |
| 1778390407 | 10° C | 52% | 1017.2 hPa | - | - | - | - |
| 1778389507 | 9.44° C | 51% | 1017.2 hPa | - | - | - | - |
| 1778388607 | 9.44° C | 51% | 1017.2 hPa | - | - | - | - |
| 1778387707 | 9.44° C | 50% | 1017.1 hPa | - | - | - | - |
| 1778386807 | 9.44° C | 50% | 1017.1 hPa | - | - | - | - |
| 1778385907 | 9.44° C | 50% | 1017.1 hPa | - | - | - | - |
| 1778385007 | 9.44° C | 49% | 1017.1 hPa | - | - | - | - |
| 1778384107 | 9.44° C | 49% | 1017.2 hPa | - | - | - | - |
| 1778383207 | 10° C | 49% | 1017.3 hPa | - | - | - | - |
| 1778382307 | 10° C | 48% | 1017.3 hPa | - | - | - | - |
| 1778381407 | 10° C | 48% | 1017.7 hPa | - | - | - | - |
| 1778380507 | 10.56° C | 48% | 1017.8 hPa | - | - | - | - |
| 1778379606 | 10.56° C | 48% | 1017.8 hPa | - | - | - | - |
| 1778378706 | 10.56° C | 47% | 1017.9 hPa | - | - | - | - |
| 1778377806 | 10.56° C | 47% | 1018 hPa | - | - | - | - |
| 1778376906 | 10.56° C | 47% | 1018 hPa | - | - | - | - |
| 1778376006 | 11.11° C | 46% | 1018 hPa | - | - | - | - |
| 1778375106 | 11.11° C | 46% | 1018.1 hPa | - | - | - | - |
| 1778374206 | 11.11° C | 46% | 1018.3 hPa | - | - | - | - |
| 1778373306 | 11.67° C | 45% | 1018.7 hPa | - | - | - | - |
* Rain since midnight (hover to see other rain measurements)
** Current wind speed in m/s (hover to see current wind gust speed)